Weather in Ptuj

Slovenia     46°25′03″N   15°52′22″E
temp.,
°C
wind,
m/s
gust,
m/s
humid.,
%
clouds,
%
prec.,
mm/h
press.,
hPa
HPBL,
m
11 april, sun
sun1123:00+8sw61371100 0.0 1018640
02:00+8sw7147319 0.0 1017890
05:00+8ssw6147693 0.0 10161032
08:00+9ssw61370100 0.0 10181002
11:00+12sw61261100 0.0 10171179
14:00+13sw7135827 0.0 10171197
17:00+13sw6126010 0.0 10161225
20:00+9ssw5137353 0.0 1017888
12 april, mon
mon1223:00+10ssw513755 0.0 1017930
02:00+10sw51278100 0.0 1017940
05:00+10sw51380100 0.0 1016718
08:00+11sw51277100 0.0 1017659
11:00+14sw4964100 0.0 1017668
14:00+14sw4763100 0.1 1017836
17:00+10ssw2593100 1.0 1017223
20:00+9nne1195100 3.3 101839
13 april, tue
tue1323:00+5n4796100 9.7 1022688
02:00+3n4998100 14.3 1023515
05:00+3nnw3997100 0.9 1022599
08:00+3n4992100 2.1 1022854
11:00+4n61081100 0.8 10231156
14:00+5n61384100 2.6 10221323
17:00+4n4991100 2.0 1022969
20:00+3nne3892100 3.4 1024736
14 april, wed
wed1423:00+2n278998 0.1 1024222
02:00+1nnw2387100 0.1 102471
05:00+2nnw3117999 0.0 1024503
08:00+4nnw4106973 0.0 1024805
11:00+8n6941100 0.0 10232331
14:00+9nne4639100 0.0 10232163
17:00+9nne464962 0.1 10221589
20:00+3ne267459 0.3 1024137
15 april, thu
thu1523:000wnw21845 0.0 102517
02:000wnw218591 0.0 102513
05:00−1w118596 0.0 102415
08:00+3wnw12675 0.0 1024194
11:00+8n34345 0.0 10231888
14:00+11nne2330100 0.0 10212637
17:00+10e434189 0.0 10201881
20:00+4e1278100 0.3 102351